Homer, AK

7:55 PM AKST on February 06, 2016 (GMT -0900)
Homer

Weather History for PAHO - December, 2012

Change the Weather History Date:

Friday, December 21, 2012

  Actual Average Record
Temperature  
Mean Temperature 10 °F -  
Max Temperature 18 °F 31 °F 46 °F (1940)
Min Temperature 3 °F 19 °F -5 °F (1956)
Degree Days  
Heating Degree Days 54    
Moisture  
Dew Point -3 °F    
Average Humidity 55    
Maximum Humidity 69    
Minimum Humidity 43    
Precipitation  
Precipitation 0.00 in - - ()
Sea Level Pressure  
Sea Level Pressure 30.04 in    
Wind  
Wind Speed 3 mph (NNE)    
Max Wind Speed 6 mph    
Max Gust Speed -    
Visibility 10 miles    
Events      
Averages and records for this station are not official NWS values.
T = Trace of Precipitation, MM = Missing Value Source: NWS Daily Summary

Daily Weather History Graph

Daily Weather History Graph

Search for Another Location

Airport or City:

Trip Planner

Search our weather history database for the weather conditions in past years. The results will help you decide how hot, cold, wet, or windy it might be!

Date:

Astronomy

Dec. 21, 2012 Rise Set
Actual Time 10:04 AM AKST 4:03 PM AKST
Civil Twilight 9:08 AM AKST 5:00 PM AKST
Nautical Twilight 8:12 AM AKST 5:56 PM AKST
Astronomical Twilight 7:21 AM AKST 6:47 PM AKST
Moon 12:57 PM AKST (12/21) 2:54 AM AKST (12/21)
Length of Visible Light 7h 52m
Length of Day
5h 58m
Waxing Gibbous, 66% of the Moon is Illuminated
Dec 21
Waxing Gibbous
Dec 28
Full
Jan 4
Last Quarter
Jan 11
New
Jan 18
First Quarter

Hourly Weather History & Observations

Time (AKST) Temp. Windchill Dew Point Humidity Pressure Visibility Wind Dir Wind Speed Gust Speed Precip Events Conditions
12:53 AM 10.9 °F 2.9 °F -0.9 °F 59% 30.10 in 10.0 mi North 4.6 mph - N/A   Clear
1:53 AM 12.0 °F - -0.9 °F 56% 30.10 in 10.0 mi Calm Calm - N/A   Clear
3:53 AM 10.0 °F - -0.9 °F 61% 30.10 in 10.0 mi Calm Calm - N/A   Clear
4:53 AM 9.0 °F - -0.9 °F 64% 30.10 in 10.0 mi Calm Calm - N/A   Clear
5:53 AM 10.0 °F 3.6 °F -2.0 °F 58% 30.09 in 10.0 mi NNE 3.5 mph - N/A   Clear
6:53 AM 10.9 °F 2.9 °F -2.0 °F 56% 30.09 in 10.0 mi North 4.6 mph - N/A   Clear
7:53 AM 12.9 °F 6.9 °F -4.0 °F 47% 30.09 in 10.0 mi North 3.5 mph - N/A   Clear
8:53 AM 9.0 °F 2.4 °F -4.0 °F 56% 30.09 in 10.0 mi NNE 3.5 mph - N/A   Clear
9:53 AM 8.1 °F 1.4 °F -4.0 °F 58% 30.09 in 10.0 mi NNE 3.5 mph - N/A   Clear
10:53 AM 6.1 °F - -4.0 °F 63% 30.09 in 10.0 mi Calm Calm - N/A   Clear
11:53 AM 14.0 °F 8.2 °F -2.9 °F 47% 30.07 in 10.0 mi NE 3.5 mph - N/A   Clear
12:53 PM 17.1 °F 10.0 °F -2.0 °F 43% 30.06 in 10.0 mi NE 4.6 mph - N/A   Clear
1:53 PM 18.0 °F 11.1 °F -0.9 °F 44% 30.05 in 10.0 mi NE 4.6 mph - N/A   Clear
2:53 PM 17.1 °F 11.7 °F -2.0 °F 43% 30.04 in 10.0 mi NE 3.5 mph - N/A   Clear
3:53 PM 14.0 °F 8.2 °F -2.9 °F 47% 30.03 in 10.0 mi ENE 3.5 mph - N/A   Clear
4:53 PM 10.0 °F 3.6 °F -2.9 °F 56% 30.01 in 10.0 mi North 3.5 mph - N/A   Clear
5:53 PM 10.0 °F 3.6 °F -5.1 °F 51% 29.99 in 10.0 mi NNE 3.5 mph - N/A   Clear
6:53 PM 10.9 °F - -5.1 °F 49% 29.99 in 10.0 mi Calm Calm - N/A   Clear
7:53 PM 5.0 °F -5.6 °F -4.0 °F 66% 29.98 in 10.0 mi NNE 5.8 mph - N/A   Clear
8:53 PM 8.1 °F 1.4 °F -5.1 °F 55% 29.96 in 10.0 mi NNE 3.5 mph - N/A   Clear
9:53 PM 9.0 °F - -5.1 °F 53% 29.95 in 10.0 mi Calm Calm - N/A   Clear
10:53 PM 3.9 °F -3.4 °F -5.1 °F 66% 29.94 in 10.0 mi NNW 3.5 mph - N/A   Clear
11:53 PM 3.0 °F -4.4 °F -5.1 °F 69% 29.93 in 10.0 mi NNE 3.5 mph - N/A   Clear